Date,TemperatureHighF,TemperatureAvgF,TemperatureLowF,DewpointHighF,DewpointAvgF,DewpointLowF,HumidityHigh,HumidityAvg,HumidityLow,PressureMaxIn,PressureMinIn,WindSpeedMaxMPH,WindSpeedAvgMPH,GustSpeedMaxMPH,PrecipitationSumIn
2013-1-1,24,8,-4,10,2,-8,82,74,47,0.00,40.00,16,3,19,0.00
2013-1-2,24,4,-6,15,-2,-11,86,77,54,0.00,40.00,6,1,7,0.00
2013-1-3,28,7,-10,3,-4,-16,80,63,30,0.00,40.00,5,1,6,0.00
2013-1-4,33,7,-10,5,-5,-16,75,59,26,0.00,40.00,14,2,19,0.00
2013-1-5,38,11,-8,8,-1,-13,79,61,25,0.00,40.00,5,1,5,0.00
2013-1-6,36,18,1,11,4,-4,80,56,29,0.00,40.00,8,2,14,0.00
2013-1-7,36,18,-2,13,2,-8,78,54,24,0.00,40.00,23,5,27,0.00
2013-1-8,35,31,26,26,23,19,79,73,67,0.00,40.00,16,8,22,0.00
2013-1-9,42,27,9,22,15,6,88,65,36,0.00,40.00,30,11,36,0.00
2013-1-10,38,30,16,27,17,10,92,63,35,0.00,40.00,29,21,47,0.00
2013-1-11,16,13,9,10,6,3,84,74,59,0.00,40.00,22,13,28,0.00
2013-1-12,11,4,-4,6,-2,-12,82,72,52,0.00,40.00,22,8,25,0.00
2013-1-13,15,-3,-17,0,-10,-24,78,71,49,0.00,40.00,13,3,14,0.00
2013-1-14,8,-6,-22,-2,-14,-29,77,69,55,0.00,40.00,16,4,18,0.00
2013-1-15,17,9,1,8,1,-6,76,69,58,0.00,40.00,15,5,20,0.00
2013-1-16,29,12,2,13,6,-3,85,75,50,0.00,40.00,10,2,11,0.00
2013-1-17,34,11,-4,22,4,-9,85,74,44,0.00,40.00,4,1,5,0.00
2013-1-18,40,16,-4,15,5,-9,84,66,34,0.00,40.00,6,1,6,0.00
2013-1-19,43,16,-2,14,5,-7,84,64,30,0.00,40.00,8,2,8,0.00
2013-1-20,41,15,-4,11,3,-9,83,62,28,0.00,40.00,6,2,7,0.00
2013-1-21,44,18,0,16,5,-6,78,60,27,0.00,40.00,8,1,8,0.00
2013-1-22,46,19,0,12,5,-5,80,59,22,0.00,40.00,4,1,5,0.00
2013-1-23,47,25,7,18,10,-1,74,55,23,0.00,40.00,6,2,13,0.00
2013-1-24,38,34,20,34,29,13,90,82,56,0.00,40.00,5,2,10,0.00
2013-1-25,39,35,32,34,31,29,91,87,74,0.00,40.00,11,3,15,0.00
2013-1-26,42,34,23,31,29,21,92,80,61,0.00,40.00,11,4,14,0.00
2013-1-27,40,30,22,32,27,17,91,86,65,0.00,40.00,28,9,32,0.00
2013-1-28,23,17,10,18,11,4,84,76,58,0.00,40.00,22,9,26,0.00
2013-1-29,25,17,7,16,10,2,85,74,57,0.00,40.00,22,8,25,0.00
2013-1-30,32,26,19,26,20,13,86,80,72,0.00,40.00,34,15,39,0.00
2013-1-31,33,32,30,23,22,20,74,66,58,0.00,40.00,25,14,28,0.00
2013-2-1,37,29,17,26,20,12,86,70,53,0.00,40.00,27,8,29,0.00
2013-2-2,45,23,8,19,13,4,86,67,27,0.00,40.00,5,2,10,0.00
2013-2-3,42,25,16,18,13,8,84,63,26,0.00,40.00,21,4,23,0.00
2013-2-4,40,23,7,16,10,2,81,60,33,0.00,40.00,18,5,22,0.00
2013-2-5,47,29,14,24,15,9,79,58,25,0.00,40.00,11,2,13,0.00
2013-2-6,38,30,16,20,16,9,78,58,37,0.00,40.00,21,6,23,0.00
2013-2-7,40,23,5,14,8,0,84,57,23,0.00,40.00,24,9,27,0.00
2013-2-8,37,29,23,27,18,12,88,64,44,0.00,40.00,22,10,25,0.00
2013-2-9,27,22,20,20,18,14,89,82,65,0.00,40.00,27,8,28,0.00
2013-2-10,25,19,12,16,13,8,86,77,60,0.00,40.00,17,6,17,0.00
2013-2-11,26,13,2,11,6,-2,85,73,52,0.00,40.00,16,4,18,0.00
2013-2-12,25,16,0,16,8,-4,80,72,60,0.00,40.00,20,6,22,0.00
2013-2-13,32,26,16,21,18,12,85,72,58,0.00,40.00,22,8,25,0.00
2013-2-14,33,28,19,23,19,12,80,67,48,0.00,40.00,20,10,22,0.00
2013-2-15,35,25,18,22,16,12,81,69,50,0.00,40.00,18,5,22,0.00
2013-2-16,44,25,10,19,13,6,84,64,27,0.00,40.00,12,3,13,0.00
2013-2-17,35,24,13,20,14,7,82,64,48,0.00,40.00,25,10,34,0.00
2013-2-18,31,19,4,12,6,0,81,58,33,0.00,40.00,14,5,18,0.00
2013-2-19,40,31,24,12,6,1,43,34,24,0.00,40.00,28,15,35,0.00
2013-2-20,37,29,24,23,17,7,85,61,39,0.00,40.00,21,8,23,0.00
2013-2-21,26,22,16,21,14,8,85,72,58,0.00,40.00,21,11,27,0.00
2013-2-22,25,18,12,15,11,6,84,72,56,0.00,40.00,21,7,27,0.00
2013-2-23,25,20,17,21,14,10,89,78,66,0.00,40.00,36,14,38,0.00
2013-2-24,26,19,5,13,10,0,82,69,50,0.00,40.00,20,12,23,0.00
2013-2-25,31,15,-3,15,4,-8,82,64,38,0.00,40.00,19,6,22,0.00
2013-2-26,24,19,7,16,12,1,86,74,58,0.00,40.00,22,13,25,0.00
2013-2-27,27,11,-3,10,2,-8,83,66,41,0.00,40.00,16,3,19,0.00
2013-2-28,35,21,2,18,8,-4,79,58,34,0.00,40.00,17,4,20,0.00
2013-3-1,42,34,24,29,24,15,82,64,50,0.00,40.00,25,8,25,0.00
2013-3-2,48,32,18,27,22,14,87,68,34,0.00,40.00,15,2,16,0.00
2013-3-3,37,33,25,33,29,21,89,84,71,0.00,40.00,18,6,20,0.00
2013-3-4,35,26,14,30,13,1,87,58,27,0.00,40.00,22,10,24,0.00
2013-3-5,47,27,8,14,8,1,82,50,15,0.00,40.00,20,6,26,0.00
2013-3-6,51,40,32,31,16,9,86,39,25,0.00,40.00,26,14,32,0.00
2013-3-7,46,35,30,30,26,19,85,70,34,0.00,40.00,20,6,20,0.00
2013-3-8,42,35,29,31,28,25,90,78,52,0.00,40.00,12,4,14,0.00
2013-3-9,38,32,27,30,23,10,90,71,41,0.00,40.00,21,10,25,0.00
2013-3-10,28,24,19,13,12,11,74,63,49,0.00,40.00,6,3,13,0.00
2013-3-11,43,34,22,26,20,13,78,58,35,0.00,40.00,27,11,32,0.00
2013-3-12,47,40,30,31,27,24,79,62,44,0.00,40.00,23,8,24,0.00
2013-3-13,57,40,25,30,24,20,84,59,24,0.00,40.00,10,3,12,0.00
2013-3-14,65,44,26,29,22,13,80,49,13,0.00,40.00,14,4,19,0.00
2013-3-15,59,48,35,30,21,11,68,38,14,0.00,40.00,19,7,24,0.00
2013-3-16,49,38,27,27,20,9,78,51,20,0.00,40.00,23,8,28,0.00
2013-3-17,38,33,25,30,21,11,89,61,45,0.00,40.00,28,15,38,0.00
2013-3-18,40,32,24,20,14,10,80,49,30,0.00,40.00,34,12,39,0.00
2013-3-19,46,33,19,17,5,-14,71,38,7,0.00,40.00,14,4,18,0.00
2013-3-20,42,37,26,35,22,1,88,59,22,0.00,40.00,19,9,23,0.00
2013-3-21,41,30,20,32,21,6,91,70,35,0.00,40.00,34,15,45,0.00
2013-3-22,24,21,17,19,13,4,88,71,45,0.00,40.00,29,8,40,0.00
2013-3-23,24,18,7,17,11,2,86,74,54,0.00,40.00,23,9,24,0.00
2013-3-24,28,15,3,16,7,-2,82,70,47,0.00,40.00,14,4,19,0.00
2013-3-25,41,25,8,23,11,2,80,57,31,0.00,40.00,14,4,16,0.00
2013-3-26,51,38,30,30,19,14,83,49,22,0.00,40.00,27,7,33,0.00
2013-3-27,57,39,22,29,22,12,86,57,17,0.00,40.00,20,3,23,0.00
2013-3-28,59,43,27,27,23,14,78,49,16,0.00,40.00,17,5,22,0.00
2013-3-29,56,44,33,31,26,21,79,51,25,0.00,40.00,22,7,27,0.00
2013-3-30,57,42,26,28,23,-100,80,52,23,0.00,40.00,22,6,27,0.00
2013-3-31,60,42,22,26,18,2,82,46,10,0.00,40.00,20,5,27,0.00
2013-4-1,48,41,32,37,32,23,90,73,41,0.00,40.00,18,5,36,0.00
2013-4-2,53,39,32,34,30,26,91,74,39,0.00,40.00,17,3,20,0.00
2013-4-3,57,42,28,35,27,20,87,59,25,0.00,40.00,18,5,22,0.00
2013-4-4,62,46,28,31,24,15,79,47,17,0.00,40.00,20,6,24,0.00
2013-4-5,54,44,32,38,29,21,88,58,28,0.00,40.00,21,10,30,0.00
2013-4-6,50,38,27,35,26,21,82,64,31,0.00,40.00,25,5,27,0.00
2013-4-7,53,41,28,32,26,19,86,58,28,0.00,40.00,24,7,33,0.00
2013-4-8,49,36,24,33,27,15,91,73,24,0.00,40.00,21,8,30,0.00
2013-4-9,26,21,16,19,10,6,84,64,44,0.00,40.00,24,13,32,0.00
2013-4-10,42,28,11,26,16,6,82,60,36,0.00,40.00,20,6,30,0.00
2013-4-11,46,38,32,33,29,24,90,69,45,0.00,40.00,22,10,23,0.00
2013-4-12,51,39,24,29,23,14,85,57,24,0.00,40.00,23,7,28,0.00
2013-4-13,49,38,31,35,27,15,88,65,29,0.00,40.00,29,9,37,0.00
2013-4-14,38,30,21,21,8,-1,80,40,22,0.00,40.00,23,12,29,0.00
2013-4-15,39,31,25,29,23,16,91,74,40,0.00,40.00,21,6,23,0.00
2013-4-16,32,28,25,25,19,11,89,68,45,0.00,40.00,21,8,24,0.00
2013-4-17,33,25,18,22,12,5,82,56,31,0.00,40.00,28,10,35,0.00
2013-4-18,38,28,17,13,6,-5,62,39,17,0.00,40.00,22,10,30,0.00
2013-4-19,45,33,20,32,20,12,85,60,37,0.00,40.00,23,7,26,0.00
2013-4-20,45,37,32,34,30,25,91,77,47,0.00,40.00,27,11,30,0.00
2013-4-21,53,40,23,30,22,18,86,55,26,0.00,40.00,22,7,31,0.00
2013-4-22,43,38,29,32,22,8,83,55,25,0.00,40.00,24,12,31,0.00
2013-4-23,42,32,19,20,10,-8,79,46,11,0.00,40.00,19,8,23,0.00
2013-4-24,53,38,21,19,9,-4,70,36,9,0.00,40.00,15,4,18,0.00
2013-4-25,55,38,20,21,11,-8,74,39,8,0.00,40.00,26,8,31,0.00
2013-4-26,60,44,22,17,11,4,63,29,12,0.00,40.00,18,6,24,0.00
2013-4-27,63,47,24,23,17,11,67,34,12,0.00,40.00,22,7,27,0.00
2013-4-28,66,51,31,28,22,17,68,37,16,0.00,40.00,24,8,34,0.00
2013-4-29,64,50,30,30,24,18,72,40,21,0.00,40.00,23,10,31,0.00
2013-4-30,49,45,34,29,13,-5,54,29,13,0.00,40.00,31,14,37,0.00
2013-5-1,41,32,22,21,9,-3,68,39,20,0.00,40.00,32,13,35,0.00
2013-5-2,55,37,16,19,9,-2,73,39,9,0.00,40.00,18,6,23,0.00
2013-5-3,61,44,24,20,12,-6,67,34,6,0.00,40.00,21,6,27,0.00
2013-5-4,62,46,24,29,17,10,68,34,13,0.00,40.00,19,5,29,0.00
2013-5-5,65,50,35,30,26,17,69,41,15,0.00,40.00,26,7,32,0.00
2013-5-6,60,48,38,38,31,21,73,52,22,0.00,40.00,19,7,26,0.00
2013-5-7,57,46,35,38,33,23,88,63,27,0.00,40.00,20,8,28,0.00
2013-5-8,57,43,31,42,35,27,89,74,36,0.00,40.00,22,5,27,0.00
2013-5-9,65,48,31,42,29,16,93,57,15,0.00,40.00,26,8,32,0.00
2013-5-10,69,51,33,35,27,-100,77,46,14,0.00,40.00,16,4,27,0.00
2013-5-11,70,53,31,34,25,-100,82,41,14,0.00,40.00,19,6,24,0.00
2013-5-12,74,57,36,32,26,21,65,36,14,0.00,40.00,18,6,25,0.00
2013-5-13,80,61,40,35,28,22,67,35,11,0.00,40.00,14,4,20,0.00
2013-5-14,77,62,42,35,30,22,64,33,12,0.00,40.00,19,6,25,0.00
2013-5-15,76,61,44,36,31,19,63,36,11,0.00,40.00,29,8,32,0.00
2013-5-16,71,56,46,39,19,-100,70,39,15,0.00,40.00,29,10,36,0.00
2013-5-17,60,50,42,42,33,-100,85,59,27,0.00,40.00,30,7,37,0.00
2013-5-18,51,44,39,42,36,28,88,75,40,0.00,40.00,19,7,22,0.00
2013-5-19,53,43,34,38,34,30,88,72,40,0.00,40.00,27,9,32,0.00
2013-5-20,55,46,40,42,38,33,86,73,54,0.00,40.00,19,9,24,0.00
2013-5-21,66,50,33,40,29,17,89,52,15,0.00,40.00,17,5,19,0.00
2013-5-22,73,59,46,37,25,16,56,30,11,0.00,40.00,32,17,36,0.00
2013-5-23,69,50,31,33,25,15,75,43,12,0.00,40.00,34,12,42,0.00
2013-5-24,68,50,29,28,18,0,72,35,6,0.00,40.00,19,6,24,0.00
2013-5-25,71,56,35,28,19,11,64,29,9,0.00,40.00,33,10,38,0.00
2013-5-26,72,61,40,24,14,6,48,18,7,0.00,40.00,35,12,37,0.00
2013-5-27,66,55,40,33,28,15,63,37,14,0.00,40.00,25,11,32,0.00
2013-5-28,55,46,40,40,35,25,87,65,34,0.00,40.00,34,10,36,0.00
2013-5-29,54,45,39,37,33,22,88,66,32,0.00,40.00,22,9,27,0.00
2013-5-30,56,44,32,38,30,24,90,62,32,0.00,40.00,27,10,31,0.00
2013-5-31,57,46,30,30,22,16,83,44,21,0.00,40.00,27,11,30,0.00
2013-6-1,67,50,27,35,24,14,78,41,14,0.00,40.00,17,5,20,0.00
2013-6-2,80,61,35,35,24,14,78,35,8,0.00,40.00,26,8,34,0.00
2013-6-3,66,58,41,26,18,10,43,22,11,0.00,40.00,23,14,29,0.00
2013-6-4,68,52,31,32,24,19,65,37,16,0.00,40.00,25,8,30,0.00
2013-6-5,70,55,35,33,28,18,77,41,15,0.00,40.00,24,6,25,0.00
2013-6-6,74,57,35,35,30,23,74,40,15,0.00,40.00,21,6,24,0.00
2013-6-7,77,60,40,39,33,27,72,41,16,0.00,40.00,22,7,32,0.00
2013-6-8,75,62,45,42,33,22,70,38,16,0.00,40.00,23,9,26,0.00
2013-6-9,84,64,39,43,32,23,71,38,14,0.00,40.00,19,6,23,0.00
2013-6-10,86,71,51,42,27,8,61,24,6,0.00,40.00,25,9,34,0.00
2013-6-11,77,64,51,36,22,11,48,22,9,0.00,40.00,24,8,34,0.00
2013-6-12,80,63,41,34,28,17,63,31,9,0.00,40.00,22,7,34,0.00
2013-6-13,80,71,54,36,26,13,44,20,7,0.00,40.00,36,15,42,0.00
2013-6-14,66,52,33,34,30,26,77,44,24,0.00,40.00,20,8,25,0.00
2013-6-15,78,54,32,34,26,9,73,40,7,0.00,40.00,22,5,29,0.00
2013-6-16,80,60,35,31,23,8,64,31,6,0.00,40.00,25,6,31,0.00
2013-6-17,81,60,35,27,21,8,59,28,6,0.00,40.00,18,4,22,0.00
2013-6-18,83,63,37,27,19,10,57,24,6,0.00,40.00,25,7,35,0.00
2013-6-19,73,61,41,33,19,12,42,20,11,0.00,40.00,31,14,41,0.00
2013-6-20,66,45,30,30,21,15,62,40,17,0.00,40.00,21,4,26,0.00
2013-6-21,69,67,65,33,32,30,30,27,23,0.00,40.00,20,17,24,0.00
2013-6-22,65,59,38,33,28,25,68,31,24,0.00,40.00,25,16,30,0.00
2013-6-23,77,56,32,30,24,16,69,36,9,0.00,40.00,20,7,29,0.00
2013-6-24,75,65,50,41,28,21,59,26,14,0.00,40.00,27,12,43,0.00
2013-6-25,77,59,43,42,38,34,81,51,21,0.00,40.00,13,3,19,0.00
2013-6-26,83,72,51,44,40,36,59,33,19,0.00,40.00,18,7,22,0.00
2013-6-27,89,69,47,46,41,35,73,41,15,0.00,40.00,17,4,30,0.00
2013-6-28,92,74,50,44,37,27,69,31,10,0.00,40.00,16,5,22,0.00
2013-6-29,90,73,49,43,38,31,62,31,12,0.00,40.00,16,5,26,0.00
2013-6-30,89,75,58,44,37,27,54,27,11,0.00,40.00,19,6,24,0.00
2013-7-1,91,74,49,40,35,27,59,27,10,0.00,40.00,15,6,21,0.00
2013-7-2,90,73,51,45,37,26,61,30,10,0.00,40.00,18,4,25,0.00
2013-7-3,86,72,53,49,43,39,58,37,23,0.00,40.00,20,6,21,0.00
2013-7-4,80,69,58,56,51,43,88,55,27,0.00,40.00,21,6,24,0.00
2013-7-5,81,67,55,56,51,43,90,60,26,0.00,40.00,42,8,46,0.00
2013-7-6,83,62,53,53,50,36,88,68,19,0.00,40.00,36,6,42,0.00
2013-7-7,81,66,56,51,48,40,78,53,27,0.00,40.00,24,9,33,0.00
2013-7-8,83,64,53,52,47,39,85,59,21,0.00,40.00,16,3,18,0.00
2013-7-9,88,69,50,50,41,23,85,44,10,0.00,40.00,16,4,20,0.00
2013-7-10,89,70,45,44,29,-100,75,30,6,0.00,40.00,17,4,19,0.00
2013-7-11,82,69,54,51,42,32,72,40,16,0.00,40.00,23,7,37,0.00
2013-7-12,76,63,56,55,51,46,89,68,35,0.00,40.00,11,4,13,0.00
2013-7-13,80,67,59,54,51,41,79,58,26,0.00,40.00,35,6,39,0.00
2013-7-14,84,66,48,53,45,28,89,56,13,0.00,40.00,9,3,14,0.00
2013-7-15,86,69,50,56,45,36,80,47,17,0.00,40.00,18,4,25,0.00
2013-7-16,82,68,60,56,51,44,79,57,26,0.00,40.00,17,5,23,0.00
2013-7-17,83,69,56,58,53,47,88,60,29,0.00,40.00,22,8,24,0.00
2013-7-18,87,72,52,54,47,34,86,46,16,0.00,40.00,15,5,20,0.00
2013-7-19,88,73,49,47,37,20,75,34,8,0.00,40.00,16,6,23,0.00
2013-7-20,88,71,48,40,31,-100,64,28,10,0.00,40.00,17,5,22,0.00
2013-7-21,88,75,48,40,31,22,56,23,8,0.00,40.00,19,6,22,0.00
2013-7-22,88,74,48,38,30,17,56,23,7,0.00,40.00,18,7,22,0.00
2013-7-23,88,72,48,35,30,17,53,24,7,0.00,40.00,16,5,20,0.00
2013-7-24,78,67,49,47,37,29,56,35,22,0.00,40.00,26,7,32,0.00
2013-7-25,85,69,54,48,40,29,74,41,14,0.00,40.00,21,6,24,0.00
2013-7-26,87,68,47,41,34,25,68,34,10,0.00,40.00,18,5,24,0.00
2013-7-27,71,62,53,55,44,32,79,53,33,0.00,40.00,14,4,16,0.00
2013-7-28,77,62,49,52,46,39,87,58,27,0.00,40.00,26,6,32,0.00
2013-7-29,76,63,51,47,45,40,82,54,28,0.00,40.00,20,7,22,0.00
2013-7-30,83,67,52,46,39,25,76,40,12,0.00,40.00,20,7,27,0.00
2013-7-31,87,71,50,43,32,21,59,28,9,0.00,40.00,18,6,29,0.00
2013-8-1,85,72,50,52,42,33,56,35,17,0.00,40.00,27,14,36,0.00
2013-8-2,84,68,47,49,34,16,84,37,8,0.00,40.00,25,8,31,0.00
2013-8-3,85,69,52,36,27,18,44,24,8,0.00,40.00,23,7,27,0.00
2013-8-4,85,72,52,39,31,25,48,25,12,0.00,40.00,19,6,25,0.00
2013-8-5,83,68,48,40,34,27,59,30,13,0.00,40.00,24,6,36,0.00
2013-8-6,85,70,50,41,33,24,58,30,10,0.00,40.00,23,6,29,0.00
2013-8-7,83,66,45,43,34,25,60,33,12,0.00,40.00,22,8,31,0.00
2013-8-8,80,62,45,47,39,28,71,47,15,0.00,40.00,22,4,31,0.00
2013-8-9,81,63,43,46,36,23,80,43,12,0.00,40.00,31,8,42,0.00
2013-8-10,80,68,54,40,34,20,52,31,10,0.00,40.00,26,12,30,0.00
2013-8-11,82,69,57,39,33,26,46,28,14,0.00,40.00,17,8,25,0.00
2013-8-12,75,65,49,40,35,26,62,33,15,0.00,40.00,21,9,27,0.00
2013-8-13,81,64,45,40,29,-100,71,34,10,0.00,40.00,21,4,24,0.00
2013-8-14,84,65,46,38,28,20,58,30,9,0.00,40.00,19,7,28,0.00
2013-8-15,86,62,46,34,12,-100,50,21,6,0.00,40.00,15,4,20,0.00
2013-8-16,87,69,44,33,22,-100,48,21,9,0.00,40.00,19,5,27,0.00
2013-8-17,84,64,54,50,38,-100,71,42,15,0.00,40.00,47,7,53,0.00
2013-8-18,86,67,46,48,41,33,86,48,15,0.00,40.00,18,6,22,0.00
2013-8-19,85,63,51,57,33,-100,72,44,18,0.00,40.00,27,5,32,0.00
2013-8-20,81,66,55,53,45,-100,76,51,23,0.00,40.00,17,5,21,0.00
2013-8-21,82,65,47,48,44,36,84,53,19,0.00,40.00,18,4,25,0.00
2013-8-22,80,63,50,49,43,39,71,50,24,0.00,40.00,26,6,30,0.00
2013-8-23,66,60,56,54,51,48,86,72,53,0.00,40.00,25,10,30,0.00
2013-8-24,77,60,44,52,44,-100,91,63,23,0.00,40.00,26,6,41,0.00
2013-8-25,76,65,53,48,44,39,71,49,26,0.00,40.00,20,11,23,0.00
2013-8-26,68,64,59,52,48,45,72,56,44,0.00,40.00,23,13,26,0.00
2013-8-27,71,63,55,52,50,48,78,63,44,0.00,40.00,19,8,22,0.00
2013-8-28,82,75,67,53,46,39,56,37,22,0.00,40.00,22,8,26,0.00
2013-8-29,83,68,48,49,45,42,84,48,24,0.00,40.00,18,5,21,0.00
2013-8-30,84,62,49,49,45,42,81,58,23,0.00,40.00,7,2,14,0.00
2013-9-4,82,70,60,51,48,45,66,47,29,0.00,40.00,15,5,23,0.00
2013-9-5,85,71,56,49,45,35,72,43,17,0.00,40.00,21,10,27,0.00
2013-9-6,85,69,54,47,43,28,72,43,12,0.00,40.00,24,8,29,0.00
2013-9-7,79,62,54,53,46,-100,88,61,27,0.00,40.00,25,5,30,0.00
2013-9-8,64,56,51,52,50,48,92,82,57,0.00,40.00,7,3,13,0.00
2013-9-9,73,58,45,49,45,37,91,66,27,0.00,40.00,21,4,22,0.00
2013-9-10,69,58,51,52,47,41,83,69,36,0.00,40.00,13,4,20,0.00
2013-9-11,69,60,54,55,51,49,90,73,51,0.00,40.00,25,8,31,0.00
2013-9-12,67,57,48,52,47,43,91,72,43,0.00,40.00,21,7,35,0.00
2013-9-13,61,55,49,53,50,46,90,83,70,0.00,40.00,23,6,27,0.00
2013-9-14,62,54,48,52,46,-100,93,79,58,0.00,40.00,23,5,27,0.00
2013-9-15,68,55,43,51,46,41,92,74,43,0.00,40.00,14,3,21,0.00
2013-9-16,78,60,43,50,44,35,87,62,21,0.00,40.00,16,4,25,0.00
2013-9-17,75,65,55,54,44,32,75,49,22,0.00,40.00,23,12,29,0.00
2013-9-18,69,61,42,37,34,25,55,37,26,0.00,40.00,29,15,38,0.00
2013-9-19,62,45,27,29,25,19,84,51,21,0.00,40.00,16,5,20,0.00
2013-9-20,76,53,27,35,27,19,83,45,12,0.00,40.00,20,5,26,0.00
2013-9-21,75,59,42,39,27,-100,65,35,14,0.00,40.00,23,9,31,0.00
2013-9-22,62,56,49,41,35,28,62,45,30,0.00,40.00,23,9,28,0.00
2013-9-23,59,51,38,33,31,28,73,48,31,0.00,40.00,20,11,26,0.00
2013-9-24,71,52,33,35,24,9,78,43,8,0.00,40.00,27,11,35,0.00
2013-9-25,64,51,35,40,28,18,88,50,16,0.00,40.00,28,17,38,0.00
2013-9-26,43,37,35,35,33,32,89,83,68,0.00,40.00,13,4,17,0.00
2013-9-27,40,36,28,33,30,24,90,78,59,0.00,40.00,18,9,23,0.00
2013-9-28,56,36,23,31,22,-100,88,65,21,0.00,40.00,13,4,18,0.00
2013-9-29,67,51,31,27,23,16,76,39,14,0.00,40.00,32,9,43,0.00
2013-9-30,69,60,48,29,24,19,44,25,17,0.00,40.00,27,11,35,0.00
2013-10-1,68,54,43,32,30,20,61,42,15,0.00,40.00,13,4,16,0.00
2013-10-2,67,49,34,40,32,26,80,56,21,0.00,40.00,26,6,35,0.00
2013-10-3,45,38,31,39,29,18,89,69,42,0.00,40.00,26,10,32,0.00
2013-10-4,39,32,28,27,25,22,92,77,57,0.00,40.00,18,8,18,0.00
2013-10-5,47,33,20,28,22,16,86,67,41,0.00,40.00,17,5,22,0.00
2013-10-6,64,41,23,30,25,19,84,59,23,0.00,40.00,13,2,16,0.00
2013-10-7,71,52,29,31,22,13,81,41,11,0.00,40.00,16,5,25,0.00
2013-10-8,60,51,36,27,22,14,67,32,15,0.00,40.00,21,9,24,0.00
2013-10-9,58,44,25,35,26,20,81,53,23,0.00,40.00,21,9,28,0.00
2013-10-10,46,40,37,37,34,32,86,79,60,0.00,40.00,22,9,25,0.00
2013-10-11,48,38,27,34,27,21,88,67,34,0.00,40.00,24,7,27,0.00
2013-10-12,56,38,24,36,20,-100,83,56,23,0.00,40.00,17,5,23,0.00
2013-10-13,50,43,38,38,34,32,87,71,52,0.00,40.00,24,9,26,0.00
2013-10-14,44,38,32,34,31,27,88,76,54,0.00,40.00,18,9,22,0.00
2013-10-15,42,33,27,28,23,18,89,69,39,0.00,40.00,12,4,16,0.00
2013-10-16,47,32,17,24,18,13,84,60,32,0.00,40.00,18,5,23,0.00
2013-10-17,49,36,22,25,20,15,83,57,27,0.00,40.00,23,6,26,0.00
2013-10-19,54,36,20,25,15,-100,82,49,19,0.00,40.00,19,6,22,0.00
2013-10-20,54,40,25,22,19,15,69,46,23,0.00,40.00,19,8,23,0.00
2013-10-21,56,43,21,25,22,16,80,45,25,0.00,40.00,14,4,20,0.00
2013-10-22,62,43,23,26,22,17,79,49,18,0.00,40.00,15,4,19,0.00
2013-10-23,64,46,23,26,21,15,78,42,14,0.00,40.00,18,3,20,0.00
2013-10-24,64,46,24,25,20,16,75,40,15,0.00,40.00,18,4,21,0.00
2013-10-25,61,52,31,24,20,15,67,30,16,0.00,40.00,15,7,19,0.00
2013-10-27,51,51,51,22,22,22,31,31,31,0.00,40.00,8,8,11,0.00
2013-10-28,54,43,37,32,11,-100,91,49,25,0.00,40.00,31,17,46,0.00
2013-10-29,37,33,28,30,28,25,92,81,62,0.00,40.00,6,2,11,0.00
2013-10-30,36,29,22,29,25,19,89,84,70,0.00,40.00,16,5,18,0.00
2013-10-31,40,37,33,29,26,24,75,64,52,0.00,40.00,20,12,23,0.00
2013-11-1,48,39,27,33,29,23,82,68,44,0.00,40.00,19,11,24,0.00
2013-11-2,61,44,21,26,6,-100,85,33,11,0.00,40.00,17,6,22,0.00
2013-11-7,53,39,23,27,22,18,82,56,29,0.00,40.00,16,6,30,0.00
2013-11-8,50,42,27,25,21,16,77,44,30,0.00,40.00,21,8,25,0.00
2013-11-9,55,29,28,21,-4,-100,70,44,23,0.00,40.00,2,1,4,0.00
2013-11-10,59,44,23,24,18,12,75,40,16,0.00,40.00,13,4,15,0.00
2013-11-11,61,45,24,22,16,12,74,36,14,0.00,40.00,16,4,17,0.00
2013-11-12,62,47,32,21,16,12,56,32,13,0.00,40.00,9,3,11,0.00
2013-11-13,55,45,28,25,20,18,68,40,22,0.00,40.00,19,6,24,0.00
2013-12-12,30,23,14,13,12,9,78,62,46,0.00,40.00,2,1,4,0.00
2013-12-13,29,25,19,15,14,13,78,62,51,0.00,40.00,14,10,21,0.00
2013-12-14,26,18,8,18,6,-100,86,77,67,0.00,40.00,13,6,14,0.00
2013-12-15,35,25,11,19,15,8,86,66,50,0.00,40.00,6,3,6,0.00
2013-12-16,44,35,19,17,14,11,69,43,28,0.00,40.00,13,5,18,0.00
2013-12-17,43,35,13,19,16,8,77,47,31,0.00,40.00,3,0,5,0.00
2013-12-18,47,39,34,28,20,17,67,46,30,0.00,40.00,12,2,20,0.00
2013-12-21,25,19,16,20,12,-100,85,80,79,0.00,40.00,9,3,15,0.00
2013-12-22,29,24,18,25,20,14,85,82,77,0.00,40.00,15,6,20,0.00
2013-12-23,34,30,27,27,25,23,86,81,76,0.00,40.00,13,6,14,0.00
2013-12-24,39,27,8,28,18,3,87,68,39,0.00,40.00,24,10,32,0.00
2013-12-25,31,13,2,11,4,-3,81,69,41,0.00,40.00,4,1,5,0.00
2013-12-26,39,28,5,13,9,0,80,48,28,0.00,40.00,3,1,4,0.00
2013-12-27,37,27,14,19,15,7,73,60,44,0.00,40.00,3,1,4,0.00
2013-12-28,31,20,19,18,-8,-100,79,53,57,0.00,40.00,12,6,18,0.00
2013-12-29,29,18,12,14,10,7,88,71,47,0.00,40.00,12,4,16,0.00
2013-12-30,34,22,10,12,9,6,81,59,35,0.00,40.00,9,3,12,0.00
2013-12-31,39,34,22,29,25,15,82,69,45,0.00,40.00,17,8,23,0.00
2014-1-1,36,30,14,22,19,10,83,62,49,0.00,40.00,27,10,31,0.00
2014-1-2,43,26,11,18,14,7,84,61,34,0.00,40.00,7,2,7,0.00